Radiation Dose at Monitoring Post of Fukushima Daini Nuclear Power Station
Date,Time,MP-1(microSv/h),MP-2(microSv/h),MP-3(microSv/h),MP-4(microSv/h),MP-5(microSv/h),MP-6(microSv/h),MP-7(microSv/h),Wind Direction,Wind Velocity(m/s),Rain
2018/04/06,00:00,0.328,0.211,0.340,0.324,0.307,0.169,0.101,south-southwest,3.8,No
2018/04/06,00:10,0.328,0.210,0.342,0.324,0.307,0.169,0.101,south-southwest,4.2,No
2018/04/06,00:20,0.327,0.210,0.340,0.325,0.307,0.168,0.101,south,5.7,No
2018/04/06,00:30,0.328,0.210,0.342,0.325,0.306,0.167,0.101,south,5.0,No
2018/04/06,00:40,0.329,0.211,0.342,0.326,0.305,0.168,0.101,south-southwest,3.6,No
2018/04/06,00:50,0.329,0.211,0.340,0.326,0.307,0.168,0.101,south-southwest,2.8,No
2018/04/06,01:00,0.328,0.210,0.343,0.323,0.306,0.168,0.102,south,2.4,No
2018/04/06,01:10,0.328,0.211,0.340,0.324,0.308,0.168,0.101,south,2.2,Yes
2018/04/06,01:20,0.327,0.212,0.342,0.325,0.306,0.169,0.101,south,3.0,Yes
2018/04/06,01:30,0.328,0.210,0.342,0.326,0.308,0.168,0.102,south,3.8,Yes
2018/04/06,01:40,0.329,0.212,0.340,0.326,0.306,0.169,0.102,south,4.5,Yes
2018/04/06,01:50,0.329,0.210,0.342,0.324,0.306,0.169,0.102,south,5.0,Yes
2018/04/06,02:00,0.328,0.213,0.343,0.327,0.307,0.169,0.101,south,5.2,Yes
2018/04/06,02:10,0.329,0.212,0.343,0.326,0.306,0.169,0.102,south,3.8,Yes
2018/04/06,02:20,0.330,0.210,0.343,0.325,0.307,0.169,0.102,south,3.4,Yes
2018/04/06,02:30,0.328,0.211,0.342,0.326,0.307,0.170,0.102,south,2.6,Yes
2018/04/06,02:40,0.327,0.212,0.343,0.325,0.307,0.169,0.103,south-southeast,0.9,Yes
2018/04/06,02:50,0.329,0.212,0.341,0.326,0.308,0.170,0.102,south-southeast,3.4,Yes
2018/04/06,03:00,0.328,0.213,0.342,0.324,0.306,0.169,0.102,south-southeast,4.2,Yes
2018/04/06,03:10,0.328,0.212,0.343,0.325,0.306,0.169,0.102,south-southeast,2.8,Yes
2018/04/06,03:20,0.330,0.211,0.343,0.324,0.306,0.170,0.102,-,CALM,No
2018/04/06,03:30,0.326,0.212,0.340,0.326,0.306,0.169,0.102,south-southeast,1.7,No
2018/04/06,03:40,0.329,0.211,0.343,0.324,0.308,0.169,0.102,south-southeast,2.3,No
2018/04/06,03:50,0.328,0.211,0.342,0.323,0.305,0.169,0.101,south-southeast,2.0,No
2018/04/06,04:00,0.326,0.211,0.341,0.325,0.306,0.169,0.101,north,1.1,No
2018/04/06,04:10,0.328,0.211,0.342,0.325,0.306,0.169,0.102,north,1.5,No
2018/04/06,04:20,0.328,0.211,0.339,0.323,0.306,0.168,0.101,north,2.9,No
2018/04/06,04:30,0.328,0.211,0.341,0.325,0.307,0.170,0.101,north-northeast,2.9,No
2018/04/06,04:40,0.329,0.211,0.342,0.324,0.306,0.168,0.101,north,2.6,No
2018/04/06,04:50,0.327,0.210,0.340,0.324,0.305,0.168,0.102,north,2.9,No
2018/04/06,05:00,0.328,0.211,0.342,0.326,0.307,0.167,0.101,north,3.4,No
2018/04/06,05:10,0.327,0.211,0.342,0.323,0.305,0.168,0.101,north,3.6,No
2018/04/06,05:20,0.327,0.210,0.340,0.324,0.306,0.169,0.101,north,3.8,No
2018/04/06,05:30,0.328,0.210,0.342,0.325,0.306,0.170,0.101,north,3.6,No
2018/04/06,05:40,0.328,0.210,0.340,0.323,0.305,0.167,0.102,north,4.5,No
2018/04/06,05:50,0.329,0.210,0.340,0.324,0.307,0.169,0.101,north,4.0,No
2018/04/06,06:00,0.328,0.210,0.341,0.324,0.306,0.168,0.102,north,3.8,No
2018/04/06,06:10,0.328,0.210,0.340,0.323,0.305,0.167,0.102,north,1.6,No
2018/04/06,06:20,0.326,0.211,0.340,0.325,0.307,0.167,0.101,north,3.0,No
2018/04/06,06:30,0.328,0.211,0.341,0.325,0.305,0.167,0.101,north,3.2,No
2018/04/06,06:40,0.327,0.210,0.340,0.323,0.306,0.168,0.102,north,2.2,No
2018/04/06,06:50,0.327,0.212,0.342,0.324,0.306,0.168,0.101,north,0.8,No
2018/04/06,07:00,0.328,0.209,0.340,0.323,0.304,0.169,0.101,southwest,1.1,No
2018/04/06,07:10,0.327,0.210,0.339,0.324,0.308,0.168,0.101,north,0.8,No
2018/04/06,07:20,0.327,0.211,0.343,0.325,0.306,0.169,0.101,north-northeast,1.9,No
2018/04/06,07:30,0.328,0.211,0.340,0.323,0.305,0.167,0.102,north,3.0,No
2018/04/06,07:40,0.326,0.210,0.341,0.325,0.307,0.167,0.101,north-northeast,2.8,No
2018/04/06,07:50,0.327,0.210,0.343,0.324,0.305,0.168,0.100,north-northeast,3.0,No
2018/04/06,08:00,0.327,0.210,0.339,0.323,0.307,0.168,0.101,north,3.1,No
2018/04/06,08:10,0.328,0.212,0.341,0.324,0.306,0.169,0.101,north,2.7,No
2018/04/06,08:20,0.329,0.211,0.342,0.324,0.305,0.169,0.102,north-northeast,2.2,No
2018/04/06,08:30,0.327,0.211,0.340,0.323,0.307,0.168,0.101,north-northeast,4.2,No
2018/04/06,08:40,0.328,0.211,0.341,0.323,0.303,0.167,0.101,north,3.8,No
2018/04/06,08:50,0.328,0.209,0.340,0.325,0.307,0.167,0.101,north-northeast,3.7,No
2018/04/06,09:00,0.327,0.211,0.342,0.326,0.306,0.168,0.101,north-northeast,3.7,No
2018/04/06,09:10,0.330,0.211,0.341,0.323,0.306,0.169,0.101,north-northeast,4.3,No
2018/04/06,09:20,0.328,0.210,0.340,0.325,0.307,0.169,0.101,north-northeast,4.4,No
2018/04/06,09:30,0.327,0.212,0.342,0.325,0.305,0.168,0.101,north-northeast,3.6,No
2018/04/06,09:40,0.329,0.211,0.341,0.324,0.308,0.167,0.101,north-northeast,3.9,No
2018/04/06,09:50,0.327,0.210,0.340,0.325,0.307,0.169,0.101,north-northeast,3.2,No
2018/04/06,10:00,0.327,0.211,0.341,0.323,0.307,0.168,0.101,north-northeast,2.4,No
2018/04/06,10:10,0.328,0.212,0.340,0.323,0.306,0.169,0.101,north-northeast,2.9,No
2018/04/06,10:20,0.328,0.210,0.342,0.326,0.305,0.168,0.102,north-northeast,3.4,No
2018/04/06,10:30,0.328,0.210,0.342,0.323,0.307,0.169,0.101,north-northeast,4.1,No
2018/04/06,10:40,0.329,0.211,0.340,0.324,0.307,0.167,0.101,north-northeast,3.8,No
2018/04/06,10:50,0.328,0.211,0.341,0.324,0.308,0.168,0.101,north-northeast,3.9,No
2018/04/06,11:00,0.328,0.211,0.340,0.323,0.305,0.168,0.102,north,2.4,No
2018/04/06,11:10,0.327,0.210,0.342,0.326,0.306,0.169,0.101,north-northeast,1.3,No
2018/04/06,11:20,0.326,0.209,0.341,0.322,0.306,0.168,0.102,north-northeast,2.6,No
2018/04/06,11:30,0.329,0.210,0.340,0.324,0.304,0.168,0.101,north-northeast,2.0,No
2018/04/06,11:40,0.328,0.210,0.342,0.322,0.306,0.167,0.101,north,2.1,No
2018/04/06,11:50,0.328,0.210,0.339,0.324,0.305,0.168,0.101,north-northeast,0.9,No
2018/04/06,12:00,0.330,0.210,0.342,0.323,0.306,0.168,0.101,north-northeast,1.2,No
2018/04/06,12:10,0.327,0.211,0.341,0.325,0.305,0.168,0.100,northeast,1.1,No
2018/04/06,12:20,0.329,0.211,0.341,0.324,0.306,0.168,0.101,east-southeast,1.2,No
2018/04/06,12:30,0.327,0.211,0.340,0.325,0.307,0.167,0.101,southeast,1.3,No
2018/04/06,12:40,0.327,0.210,0.342,0.323,0.303,0.167,0.101,south-southeast,1.5,No
2018/04/06,12:50,0.328,0.210,0.340,0.325,0.307,0.168,0.101,south,1.7,No
2018/04/06,13:00,0.328,0.210,0.340,0.322,0.305,0.169,0.102,east-southeast,1.8,No
2018/04/06,13:10,0.328,0.210,0.341,0.323,0.305,0.169,0.101,south-southeast,1.5,No
2018/04/06,13:20,0.326,0.212,0.339,0.323,0.306,0.167,0.101,southeast,1.2,No
2018/04/06,13:30,0.329,0.211,0.341,0.325,0.305,0.169,0.100,east,1.0,No
2018/04/06,13:40,0.328,0.212,0.341,0.324,0.307,0.167,0.101,northeast,1.4,No
2018/04/06,13:50,0.328,0.211,0.342,0.325,0.305,0.169,0.102,southeast,1.3,No
2018/04/06,14:00,0.327,0.211,0.340,0.323,0.309,0.168,0.101,northeast,1.3,No
2018/04/06,14:10,0.328,0.212,0.340,0.325,0.304,0.169,0.101,south-southwest,1.1,No
2018/04/06,14:20,0.330,0.211,0.341,0.324,0.309,0.168,0.101,southeast,0.7,No
2018/04/06,14:30,0.327,0.211,0.341,0.326,0.306,0.168,0.101,north-northeast,0.7,No
2018/04/06,14:40,0.328,0.211,0.343,0.325,0.308,0.169,0.101,-,CALM,No
2018/04/06,14:50,0.328,0.211,0.340,0.325,0.307,0.168,0.102,-,CALM,Yes
2018/04/06,15:00,0.326,0.212,0.345,0.325,0.307,0.168,0.102,east-northeast,0.7,Yes
2018/04/06,15:10,0.329,0.211,0.341,0.325,0.306,0.168,0.102,east-northeast,1.6,No
2018/04/06,15:20,0.328,0.212,0.343,0.326,0.307,0.169,0.101,north-northeast,2.9,No
2018/04/06,15:30,0.328,0.212,0.342,0.323,0.308,0.168,0.101,north,3.6,No
2018/04/06,15:40,0.330,0.212,0.340,0.325,0.305,0.168,0.101,north,2.9,No
2018/04/06,15:50,0.327,0.212,0.342,0.325,0.308,0.169,0.101,north,4.5,No
2018/04/06,16:00,0.328,0.210,0.341,0.323,0.306,0.168,0.100,north,5.6,No
2018/04/06,16:10,0.329,0.213,0.343,0.324,0.309,0.168,0.101,north,6.0,No
2018/04/06,16:20,0.328,0.211,0.343,0.323,0.306,0.168,0.101,north,4.9,No
2018/04/06,16:30,0.328,0.210,0.341,0.326,0.306,0.168,0.101,north,5.8,No
2018/04/06,16:40,0.327,0.212,0.344,0.324,0.308,0.169,0.102,north,6.0,No
2018/04/06,16:50,0.329,0.212,0.342,0.325,0.305,0.168,0.102,north,6.2,No
2018/04/06,17:00,0.328,0.211,0.341,0.326,0.307,0.167,0.102,north,5.3,No
2018/04/06,17:10,0.328,0.211,0.342,0.324,0.305,0.169,0.101,north,6.4,No
2018/04/06,17:20,0.327,0.210,0.341,0.326,0.308,0.168,0.102,north,6.7,No
2018/04/06,17:30,0.328,0.212,0.342,0.325,0.307,0.168,0.101,north,7.0,No
2018/04/06,17:40,0.328,0.211,0.342,0.324,0.306,0.168,0.102,north,8.1,No
2018/04/06,17:50,0.328,0.211,0.342,0.325,0.308,0.168,0.101,north,9.2,No
2018/04/06,18:00,0.327,0.211,0.343,0.325,0.305,0.169,0.101,north,8.4,No
2018/04/06,18:10,0.328,0.212,0.342,0.325,0.307,0.170,0.102,north,8.1,No
2018/04/06,18:20,0.330,0.210,0.341,0.325,0.309,0.168,0.101,north,8.1,Yes
2018/04/06,18:30,0.329,0.211,0.343,0.325,0.307,0.169,0.101,north,7.8,No
2018/04/06,18:40,0.328,0.212,0.342,0.324,0.307,0.169,0.101,north,8.2,No
2018/04/06,18:50,0.330,0.212,0.340,0.326,0.309,0.168,0.101,north-northwest,8.1,No
2018/04/06,19:00,0.329,0.212,0.342,0.325,0.305,0.169,0.102,north,7.4,No
2018/04/06,19:10,0.328,0.212,0.342,0.326,0.308,0.170,0.100,north,7.9,No
2018/04/06,19:20,0.329,0.211,0.341,0.325,0.307,0.169,0.102,north-northwest,6.2,No
2018/04/06,19:30,0.328,0.212,0.341,0.323,0.306,0.169,0.102,north,7.0,No
2018/04/06,19:40,0.327,0.211,0.341,0.326,0.309,0.168,0.102,north,7.8,Yes
2018/04/06,19:50,0.328,0.211,0.341,0.325,0.307,0.170,0.102,north,6.7,Yes
2018/04/06,20:00,0.328,0.212,0.344,0.325,0.307,0.169,0.101,north-northwest,6.1,Yes
2018/04/06,20:10,0.328,0.212,0.343,0.325,0.307,0.169,0.101,north,7.8,Yes
2018/04/06,20:20,0.329,0.211,0.342,0.326,0.308,0.169,0.101,north-northwest,7.6,Yes
2018/04/06,20:30,0.328,0.212,0.342,0.325,0.307,0.169,0.102,north-northwest,6.8,Yes
2018/04/06,20:40,0.327,0.212,0.343,0.325,0.306,0.168,0.103,north-northwest,7.9,Yes
2018/04/06,20:50,0.328,0.212,0.341,0.325,0.306,0.170,0.102,north-northwest,9.5,Yes
2018/04/06,21:00,0.327,0.211,0.341,0.325,0.305,0.169,0.102,north-northwest,9.2,Yes
2018/04/06,21:10,0.329,0.213,0.342,0.325,0.308,0.169,0.102,north-northwest,8.2,Yes
2018/04/06,21:20,0.328,0.210,0.341,0.324,0.307,0.168,0.101,north-northwest,9.2,Yes
2018/04/06,21:30,0.329,0.213,0.341,0.324,0.306,0.168,0.102,north-northwest,8.9,No
2018/04/06,21:40,0.327,0.212,0.341,0.324,0.307,0.168,0.102,north,9.2,No
2018/04/06,21:50,0.328,0.210,0.340,0.324,0.307,0.168,0.101,north-northwest,8.6,No
2018/04/06,22:00,0.327,0.211,0.342,0.323,0.305,0.168,0.102,north,8.8,No
2018/04/06,22:10,0.327,0.210,0.342,0.324,0.308,0.168,0.101,north-northwest,8.7,No
2018/04/06,22:20,0.327,0.210,0.342,0.323,0.305,0.170,0.101,north-northwest,7.9,No
2018/04/06,22:30,0.328,0.210,0.342,0.324,0.305,0.168,0.101,north-northwest,8.6,No
2018/04/06,22:40,0.328,0.211,0.343,0.324,0.308,0.168,0.101,north-northwest,8.7,Yes
2018/04/06,22:50,0.329,0.210,0.342,0.324,0.304,0.168,0.101,north,10.0,Yes
2018/04/06,23:00,0.329,0.211,0.341,0.323,0.307,0.168,0.102,north-northwest,9.5,Yes
2018/04/06,23:10,0.328,0.212,0.342,0.325,0.307,0.169,0.102,north-northwest,9.8,Yes
2018/04/06,23:20,0.327,0.212,0.341,0.323,0.304,0.170,0.103,north-northwest,9.6,Yes
2018/04/06,23:30,0.326,0.210,0.338,0.320,0.303,0.169,0.103,north,8.2,Yes
2018/04/06,23:40,0.323,0.210,0.338,0.318,0.303,0.169,0.102,north,7.1,Yes
2018/04/06,23:50,0.324,0.210,0.337,0.320,0.302,0.167,0.104,north,7.3,Yes
